Time,TemperatureF,DewpointF,PressureIn,WindDirection,WindDirectionDegrees,WindSpeedMPH,WindSpeedGustMPH,Humidity,HourlyPrecipIn,Conditions,Clouds,dailyrainin,SoftwareType,DateUTC
2013-06-24 00:02:00,70.3,69.1,29.91,East,86,0.0,2.0,96,0.00,,,0.04,Wunderground v.1.13,2013-06-24 04:02:00,
2013-06-24 00:07:00,70.3,69.4,29.91,East,89,1.0,1.0,97,0.00,,,0.04,Wunderground v.1.13,2013-06-24 04:07:00,
2013-06-24 00:12:00,70.6,69.7,29.91,ENE,76,2.0,2.0,97,0.00,,,0.00,Wunderground v.1.13,2013-06-24 04:12:00,
2013-06-24 00:17:00,70.6,69.1,29.91,East,92,2.0,3.0,95,0.00,,,0.00,Wunderground v.1.13,2013-06-24 04:17:00,
2013-06-24 00:22:00,70.8,68.7,29.91,ESE,103,2.0,2.0,93,0.00,,,0.00,Wunderground v.1.13,2013-06-24 04:22:00,
2013-06-24 00:27:00,70.8,68.4,29.91,NE,56,2.0,3.0,92,0.00,,,0.00,Wunderground v.1.13,2013-06-24 04:27:00,
2013-06-24 00:32:00,71.1,67.7,29.91,East,96,2.0,2.0,89,0.00,,,0.00,Wunderground v.1.13,2013-06-24 04:32:00,
2013-06-24 00:37:00,71.5,66.4,29.90,East,95,2.0,2.0,84,0.00,,,0.00,Wunderground v.1.13,2013-06-24 04:37:00,
2013-06-24 00:42:00,71.5,66.1,29.90,East,95,1.0,1.0,83,0.00,,,0.00,Wunderground v.1.13,2013-06-24 04:42:00,
2013-06-24 00:47:00,70.9,65.8,29.90,East,95,0.0,1.0,84,0.00,,,0.00,Wunderground v.1.13,2013-06-24 04:47:00,
2013-06-24 00:52:00,70.6,66.5,29.90,East,95,0.0,1.0,87,0.00,,,0.00,Wunderground v.1.13,2013-06-24 04:52:00,
2013-06-24 00:57:00,70.1,66.7,29.90,East,95,0.0,0.0,89,0.00,,,0.00,Wunderground v.1.13,2013-06-24 04:57:00,
2013-06-24 01:02:00,70.1,67.7,29.90,East,95,1.0,1.0,92,0.00,,,0.00,Wunderground v.1.13,2013-06-24 05:02:00,
2013-06-24 01:07:00,69.9,68.1,29.90,East,95,1.0,1.0,94,0.00,,,0.00,Wunderground v.1.13,2013-06-24 05:07:00,
2013-06-24 01:12:00,70.1,68.6,29.90,East,95,0.0,0.0,95,0.00,,,0.00,Wunderground v.1.13,2013-06-24 05:12:00,
2013-06-24 01:17:00,70.3,68.8,29.90,ENE,75,1.0,1.0,95,0.00,,,0.00,Wunderground v.1.13,2013-06-24 05:17:00,
2013-06-24 01:22:00,70.6,68.8,29.89,NE,56,2.0,2.0,94,0.00,,,0.00,Wunderground v.1.13,2013-06-24 05:22:00,
2013-06-24 01:27:00,70.9,67.8,29.89,East,88,2.0,2.0,90,0.00,,,0.00,Wunderground v.1.13,2013-06-24 05:27:00,
2013-06-24 01:32:00,70.9,67.2,29.89,East,100,1.0,3.0,88,0.00,,,0.00,Wunderground v.1.13,2013-06-24 05:32:00,
2013-06-24 01:37:00,70.9,66.8,29.90,ESE,110,1.0,1.0,87,0.00,,,0.00,Wunderground v.1.13,2013-06-24 05:37:00,
2013-06-24 01:42:00,70.8,67.1,29.90,ESE,103,1.0,3.0,88,0.00,,,0.00,Wunderground v.1.13,2013-06-24 05:42:00,
2013-06-24 01:52:00,71.1,66.4,29.89,East,97,3.0,3.0,85,0.00,,,0.00,Wunderground v.1.13,2013-06-24 05:52:00,
2013-06-24 01:57:00,71.3,65.9,29.89,ESE,121,3.0,3.0,83,0.00,,,0.00,Wunderground v.1.13,2013-06-24 05:57:00,
2013-06-24 02:02:00,71.3,65.9,29.89,ESE,120,2.0,3.0,83,0.00,,,0.00,Wunderground v.1.13,2013-06-24 06:02:00,
2013-06-24 02:07:00,71.5,65.7,29.89,ESE,109,3.0,3.0,82,0.00,,,0.00,Wunderground v.1.13,2013-06-24 06:07:00,
2013-06-24 02:12:00,71.5,65.4,29.89,East,88,3.0,3.0,81,0.00,,,0.00,Wunderground v.1.13,2013-06-24 06:12:00,
2013-06-24 02:17:00,71.6,65.1,29.89,East,95,3.0,3.0,80,0.00,,,0.00,Wunderground v.1.13,2013-06-24 06:17:00,
2013-06-24 02:22:00,71.6,65.1,29.88,East,100,4.0,6.0,80,0.00,,,0.00,Wunderground v.1.13,2013-06-24 06:22:00,
2013-06-24 02:27:00,71.6,64.7,29.88,East,97,4.0,5.0,79,0.00,,,0.00,Wunderground v.1.13,2013-06-24 06:27:00,
2013-06-24 02:32:00,71.6,64.7,29.88,ESE,102,4.0,5.0,79,0.00,,,0.00,Wunderground v.1.13,2013-06-24 06:32:00,
2013-06-24 02:37:00,71.6,64.4,29.88,ESE,116,4.0,5.0,78,0.00,,,0.00,Wunderground v.1.13,2013-06-24 06:37:00,
2013-06-24 02:47:00,71.8,63.4,29.88,ENE,68,5.0,5.0,75,0.00,,,0.00,Wunderground v.1.13,2013-06-24 06:47:00,
2013-06-24 02:52:00,72.0,62.9,29.88,East,86,5.0,5.0,73,0.00,,,0.00,Wunderground v.1.13,2013-06-24 06:52:00,
2013-06-24 02:57:00,72.1,62.6,29.88,East,100,5.0,5.0,72,0.00,,,0.00,Wunderground v.1.13,2013-06-24 06:57:00,
2013-06-24 03:02:00,72.1,62.6,29.88,ENE,68,4.0,5.0,72,0.00,,,0.00,Wunderground v.1.13,2013-06-24 07:02:00,
2013-06-24 03:07:00,72.1,62.2,29.88,SE,126,4.0,5.0,71,0.00,,,0.00,Wunderground v.1.13,2013-06-24 07:07:00,
2013-06-24 03:17:00,72.0,63.6,29.88,East,93,3.0,3.0,75,0.00,,,0.00,Wunderground v.1.13,2013-06-24 07:17:00,
2013-06-24 03:22:00,71.8,63.8,29.88,ESE,116,3.0,5.0,76,0.00,,,0.00,Wunderground v.1.13,2013-06-24 07:22:00,
2013-06-24 03:27:00,71.6,64.0,29.88,ESE,112,2.0,2.0,77,0.00,,,0.00,Wunderground v.1.13,2013-06-24 07:27:00,
2013-06-24 03:32:00,71.6,64.0,29.88,ESE,114,2.0,2.0,77,0.00,,,0.00,Wunderground v.1.13,2013-06-24 07:32:00,
2013-06-24 03:37:00,71.6,64.4,29.88,East,79,2.0,3.0,78,0.00,,,0.00,Wunderground v.1.13,2013-06-24 07:37:00,
2013-06-24 03:42:00,71.6,64.0,29.88,ESE,104,3.0,5.0,77,0.00,,,0.00,Wunderground v.1.13,2013-06-24 07:42:00,
2013-06-24 03:47:00,71.8,63.1,29.88,East,82,4.0,5.0,74,0.00,,,0.00,Wunderground v.1.13,2013-06-24 07:47:00,
2013-06-24 03:52:00,71.8,62.7,29.88,East,93,4.0,4.0,73,0.00,,,0.00,Wunderground v.1.13,2013-06-24 07:52:00,
2013-06-24 03:57:00,71.8,63.1,29.88,East,83,3.0,3.0,74,0.00,,,0.00,Wunderground v.1.13,2013-06-24 07:57:00,
2013-06-24 04:02:00,71.6,63.3,29.88,ESE,116,2.0,4.0,75,0.00,,,0.00,Wunderground v.1.13,2013-06-24 08:02:00,
2013-06-24 04:17:00,71.3,63.7,29.88,ENE,76,2.0,2.0,77,0.00,,,0.00,Wunderground v.1.13,2013-06-24 08:17:00,
2013-06-24 04:22:00,71.5,63.2,29.88,East,85,2.0,2.0,75,0.00,,,0.00,Wunderground v.1.13,2013-06-24 08:22:00,
2013-06-24 04:27:00,71.5,62.4,29.88,East,85,2.0,2.0,73,0.00,,,0.00,Wunderground v.1.13,2013-06-24 08:27:00,
2013-06-24 04:37:00,71.8,60.7,29.87,NNE,25,3.0,3.0,68,0.00,,,0.00,Wunderground v.1.13,2013-06-24 08:37:00,
2013-06-24 04:52:00,72.0,59.6,29.87,NE,44,2.0,2.0,65,0.00,,,0.00,Wunderground v.1.13,2013-06-24 08:52:00,
2013-06-24 04:57:00,72.0,59.6,29.87,ENE,64,2.0,6.0,65,0.00,,,0.00,Wunderground v.1.13,2013-06-24 08:57:00,
2013-06-24 05:02:00,72.1,59.2,29.87,ESE,112,3.0,3.0,64,0.00,,,0.00,Wunderground v.1.13,2013-06-24 09:02:00,
2013-06-24 05:07:00,72.0,59.6,29.87,ENE,76,3.0,3.0,65,0.00,,,0.00,Wunderground v.1.13,2013-06-24 09:07:00,
2013-06-24 05:22:00,71.5,61.2,29.86,East,100,3.0,4.0,70,0.00,,,0.00,Wunderground v.1.13,2013-06-24 09:22:00,
2013-06-24 05:32:00,71.5,60.8,29.86,ENE,59,3.0,3.0,69,0.00,,,0.00,Wunderground v.1.13,2013-06-24 09:32:00,
2013-06-24 05:37:00,71.6,60.9,29.86,East,82,3.0,3.0,69,0.00,,,0.00,Wunderground v.1.13,2013-06-24 09:37:00,
2013-06-24 05:42:00,71.6,60.5,29.86,ESE,113,2.0,2.0,68,0.00,,,0.00,Wunderground v.1.13,2013-06-24 09:42:00,
2013-06-24 05:52:00,71.5,61.6,29.86,East,83,2.0,2.0,71,0.00,,,0.00,Wunderground v.1.13,2013-06-24 09:52:00,
2013-06-24 05:57:00,71.5,60.8,29.86,ESE,123,2.0,3.0,69,0.00,,,0.00,Wunderground v.1.13,2013-06-24 09:57:00,
2013-06-24 06:02:00,71.8,59.8,29.86,ENE,73,3.0,5.0,66,0.00,,,0.00,Wunderground v.1.13,2013-06-24 10:02:00,
2013-06-24 06:07:00,72.0,58.3,29.87,ESE,106,4.0,11.0,62,0.00,,,0.00,Wunderground v.1.13,2013-06-24 10:07:00,
2013-06-24 06:17:00,72.8,54.1,29.87,East,88,5.0,5.0,52,0.00,,,0.00,Wunderground v.1.13,2013-06-24 10:17:00,
2013-06-24 06:22:00,73.2,52.9,29.87,ESE,106,4.0,5.0,49,0.00,,,0.00,Wunderground v.1.13,2013-06-24 10:22:00,
2013-06-24 06:27:00,73.5,53.2,29.87,East,90,3.0,3.0,49,0.00,,,0.00,Wunderground v.1.13,2013-06-24 10:27:00,
2013-06-24 06:32:00,73.5,53.7,29.87,East,93,2.0,5.0,50,0.00,,,0.00,Wunderground v.1.13,2013-06-24 10:32:00,
2013-06-24 06:37:00,73.5,53.7,29.87,SE,141,3.0,3.0,50,0.00,,,0.00,Wunderground v.1.13,2013-06-24 10:37:00,
2013-06-24 06:57:00,73.0,59.2,29.87,SSE,147,0.0,3.0,62,0.00,,,0.00,Wunderground v.1.13,2013-06-24 10:57:00,
2013-06-24 07:02:00,73.3,55.1,29.87,East,83,1.0,3.0,53,0.00,,,0.00,Wunderground v.1.13,2013-06-24 11:02:00,
2013-06-24 07:07:00,73.9,53.5,29.88,East,88,2.0,2.0,49,0.00,,,0.00,Wunderground v.1.13,2013-06-24 11:07:00,
2013-06-24 07:12:00,74.4,56.2,29.88,East,82,2.0,2.0,53,0.00,,,0.00,Wunderground v.1.13,2013-06-24 11:12:00,
2013-06-24 07:22:00,75.1,49.1,29.88,ESE,114,3.0,3.0,40,0.00,,,0.00,Wunderground v.1.13,2013-06-24 11:22:00,
2013-06-24 07:32:00,75.4,42.7,29.88,ENE,75,1.0,1.0,31,0.00,,,0.00,Wunderground v.1.13,2013-06-24 11:32:00,
2013-06-24 07:37:00,75.8,46.2,29.88,ESE,103,1.0,2.0,35,0.00,,,0.00,Wunderground v.1.13,2013-06-24 11:37:00,
2013-06-24 07:42:00,76.0,41.4,29.88,NNE,25,1.0,1.0,29,0.00,,,0.00,Wunderground v.1.13,2013-06-24 11:42:00,
2013-06-24 07:47:00,76.5,38.0,29.88,ENE,58,2.0,2.0,25,0.00,,,0.00,Wunderground v.1.13,2013-06-24 11:47:00,
2013-06-24 07:52:00,77.0,34.1,29.88,NE,54,2.0,2.0,21,0.00,,,0.00,Wunderground v.1.13,2013-06-24 11:52:00,
2013-06-24 08:02:00,77.9,23.1,29.88,ESE,104,2.0,5.0,13,0.00,,,0.00,Wunderground v.1.13,2013-06-24 12:02:00,
2013-06-24 08:07:00,77.9,19.1,29.88,East,88,3.0,3.0,11,0.00,,,0.00,Wunderground v.1.13,2013-06-24 12:07:00,
2013-06-24 08:12:00,78.1,21.3,29.88,NE,42,4.0,7.0,12,0.00,,,0.00,Wunderground v.1.13,2013-06-24 12:12:00,
2013-06-24 08:17:00,78.3,19.4,29.88,ENE,78,5.0,5.0,11,0.00,,,0.00,Wunderground v.1.13,2013-06-24 12:17:00,
2013-06-24 08:22:00,78.5,27.0,29.88,NE,41,5.0,6.0,15,0.00,,,0.00,Wunderground v.1.13,2013-06-24 12:22:00,
2013-06-24 08:27:00,78.6,27.1,29.88,East,92,4.0,4.0,15,0.00,,,0.00,Wunderground v.1.13,2013-06-24 12:27:00,
2013-06-24 08:32:00,78.8,25.5,29.88,NNE,30,4.0,4.0,14,0.00,,,0.00,Wunderground v.1.13,2013-06-24 12:32:00,
2013-06-24 08:37:00,79.0,17.7,29.88,ESE,109,3.0,4.0,10,0.00,,,0.00,Wunderground v.1.13,2013-06-24 12:37:00,
2013-06-24 08:42:00,79.4,26.0,29.88,ENE,64,3.0,4.0,14,0.00,,,0.00,Wunderground v.1.13,2013-06-24 12:42:00,
2013-06-24 08:52:00,79.8,20.6,29.87,ESE,109,3.0,3.0,11,0.00,,,0.00,Wunderground v.1.13,2013-06-24 12:52:00,
2013-06-24 08:57:00,79.9,18.4,29.87,ESE,107,4.0,5.0,10,0.00,,,0.00,Wunderground v.1.13,2013-06-24 12:57:00,
2013-06-24 09:02:00,80.3,7.1,29.87,ENE,64,5.0,5.0,6,0.00,,,0.00,Wunderground v.1.13,2013-06-24 13:02:00,
2013-06-24 09:07:00,80.5,7.3,29.87,ENE,69,5.0,7.0,6,0.00,,,0.00,Wunderground v.1.13,2013-06-24 13:07:00,
2013-06-24 09:12:00,80.7,-1.4,29.87,ESE,113,5.0,5.0,4,0.00,,,0.00,Wunderground v.1.13,2013-06-24 13:12:00,
2013-06-24 09:17:00,80.9,-28.6,29.87,East,99,5.0,5.0,1,0.00,,,0.00,Wunderground v.1.13,2013-06-24 13:17:00,
2013-06-24 09:22:00,81.1,-1.1,29.87,NE,49,7.0,7.0,4,0.00,,,0.00,Wunderground v.1.13,2013-06-24 13:22:00,
2013-06-24 09:32:00,81.6,-15.0,29.87,ESE,102,7.0,11.0,2,0.00,,,0.00,Wunderground v.1.13,2013-06-24 13:32:00,
2013-06-24 09:37:00,81.8,-99.9,29.86,ENE,59,8.0,8.0,255,0.00,,,0.00,Wunderground v.1.13,2013-06-24 13:37:00,
2013-06-24 09:52:00,82.8,-99.9,29.86,ESE,113,6.0,6.0,0,0.00,,,0.00,Wunderground v.1.13,2013-06-24 13:52:00,
2013-06-24 10:02:00,83.6,-99.9,29.86,SE,128,5.0,7.0,0,0.00,,,0.00,Wunderground v.1.13,2013-06-24 14:02:00,
2013-06-24 10:07:00,83.6,-99.9,29.86,ESE,110,5.0,5.0,0,0.00,,,0.00,Wunderground v.1.13,2013-06-24 14:07:00,
2013-06-24 10:12:00,83.8,-99.9,29.86,ESE,109,6.0,6.0,0,0.00,,,0.00,Wunderground v.1.13,2013-06-24 14:12:00,
2013-06-24 10:17:00,84.0,-99.9,29.86,ENE,64,6.0,6.0,0,0.00,,,0.00,Wunderground v.1.13,2013-06-24 14:17:00,
2013-06-24 10:27:00,84.7,-99.9,29.87,East,93,3.0,3.0,0,0.00,,,0.00,Wunderground v.1.13,2013-06-24 14:27:00,
2013-06-24 10:32:00,85.3,-99.9,29.87,East,79,3.0,4.0,0,0.00,,,0.00,Wunderground v.1.13,2013-06-24 14:32:00,
2013-06-24 10:37:00,85.5,-99.9,29.87,ESE,109,5.0,7.0,0,0.00,,,0.00,Wunderground v.1.13,2013-06-24 14:37:00,
2013-06-24 10:47:00,85.7,85.7,29.87,East,85,7.0,10.0,100,0.00,,,0.00,Wunderground v.1.13,2013-06-24 14:47:00,
2013-06-24 10:57:00,86.1,-99.9,29.86,East,92,5.0,12.0,0,0.00,,,0.00,Wunderground v.1.13,2013-06-24 14:57:00,
2013-06-24 11:07:00,86.3,86.3,29.85,East,89,5.0,9.0,100,0.00,,,0.00,Wunderground v.1.13,2013-06-24 15:07:00,
2013-06-24 11:12:00,86.5,86.5,29.85,ESE,106,4.0,7.0,100,0.00,,,0.00,Wunderground v.1.13,2013-06-24 15:12:00,
2013-06-24 11:17:00,86.3,86.3,29.85,East,90,6.0,6.0,100,0.00,,,0.00,Wunderground v.1.13,2013-06-24 15:17:00,
2013-06-24 11:27:00,87.0,87.0,29.86,SE,128,4.0,4.0,100,0.00,,,0.00,Wunderground v.1.13,2013-06-24 15:27:00,
2013-06-24 11:32:00,87.2,87.2,29.86,East,99,5.0,9.0,100,0.00,,,0.00,Wunderground v.1.13,2013-06-24 15:32:00,
2013-06-24 11:37:00,87.2,87.2,29.85,East,85,6.0,6.0,100,0.00,,,0.00,Wunderground v.1.13,2013-06-24 15:37:00,
2013-06-24 11:42:00,87.2,87.2,29.85,SE,128,6.0,6.0,100,0.00,,,0.00,Wunderground v.1.13,2013-06-24 15:42:00,
2013-06-24 11:47:00,87.4,87.4,29.85,SE,144,4.0,4.0,100,0.00,,,0.00,Wunderground v.1.13,2013-06-24 15:47:00,
2013-06-24 11:52:00,87.6,87.6,29.85,SSE,155,4.0,4.0,100,0.00,,,0.00,Wunderground v.1.13,2013-06-24 15:52:00,
2013-06-24 11:57:00,87.8,87.8,29.85,East,83,5.0,5.0,100,0.00,,,0.00,Wunderground v.1.13,2013-06-24 15:57:00,
2013-06-24 12:02:00,87.8,87.8,29.85,East,80,6.0,8.0,100,0.00,,,0.00,Wunderground v.1.13,2013-06-24 16:02:00,
2013-06-24 12:07:00,88.2,88.2,29.85,South,171,5.0,6.0,100,0.00,,,0.00,Wunderground v.1.13,2013-06-24 16:07:00,
2013-06-24 12:12:00,88.2,88.2,29.85,ESE,107,4.0,7.0,100,0.00,,,0.00,Wunderground v.1.13,2013-06-24 16:12:00,
2013-06-24 12:22:00,88.6,88.6,29.84,ESE,113,4.0,4.0,100,0.00,,,0.00,Wunderground v.1.13,2013-06-24 16:22:00,
2013-06-24 12:27:00,88.6,88.6,29.84,SE,133,4.0,4.0,100,0.00,,,0.00,Wunderground v.1.13,2013-06-24 16:27:00,
2013-06-24 12:37:00,89.0,89.0,29.84,SE,133,4.0,4.0,100,0.00,,,0.00,Wunderground v.1.13,2013-06-24 16:37:00,
2013-06-24 12:42:00,89.0,89.0,29.84,SE,133,4.0,4.0,100,0.00,,,0.00,Wunderground v.1.13,2013-06-24 16:42:00,
2013-06-24 12:47:00,89.5,89.5,29.84,ENE,58,4.0,6.0,100,0.00,,,0.00,Wunderground v.1.13,2013-06-24 16:47:00,
2013-06-24 12:52:00,89.5,89.5,29.85,ESE,103,4.0,4.0,100,0.00,,,0.00,Wunderground v.1.13,2013-06-24 16:52:00,
2013-06-24 12:57:00,89.7,89.7,29.85,SSE,167,4.0,4.0,100,0.00,,,0.00,Wunderground v.1.13,2013-06-24 16:57:00,
2013-06-24 13:02:00,89.9,89.9,29.85,SE,131,4.0,4.0,100,0.00,,,0.00,Wunderground v.1.13,2013-06-24 17:02:00,
2013-06-24 13:07:00,90.1,90.1,29.84,ESE,117,4.0,4.0,100,0.00,,,0.00,Wunderground v.1.13,2013-06-24 17:07:00,
2013-06-24 13:12:00,89.7,89.7,29.84,ESE,117,5.0,5.0,100,0.00,,,0.00,Wunderground v.1.13,2013-06-24 17:12:00,
2013-06-24 13:22:00,90.3,90.3,29.84,NNE,24,3.0,5.0,100,0.00,,,0.00,Wunderground v.1.13,2013-06-24 17:22:00,
2013-06-24 13:27:00,91.0,91.0,29.84,ESE,120,3.0,7.0,100,0.00,,,0.00,Wunderground v.1.13,2013-06-24 17:27:00,
2013-06-24 13:37:00,90.7,90.7,29.84,East,80,4.0,10.0,100,0.00,,,0.00,Wunderground v.1.13,2013-06-24 17:37:00,
2013-06-24 13:42:00,90.1,90.1,29.84,ESE,116,6.0,6.0,100,0.00,,,0.00,Wunderground v.1.13,2013-06-24 17:42:00,
2013-06-24 13:47:00,90.1,90.1,29.84,ESE,109,6.0,8.0,100,0.00,,,0.00,Wunderground v.1.13,2013-06-24 17:47:00,
2013-06-24 13:57:00,90.7,90.7,29.83,SSE,165,3.0,3.0,100,0.00,,,0.00,Wunderground v.1.13,2013-06-24 17:57:00,
2013-06-24 14:02:00,90.7,90.7,29.83,SE,124,3.0,10.0,100,0.00,,,0.00,Wunderground v.1.13,2013-06-24 18:02:00,
2013-06-24 14:07:00,90.5,90.5,29.83,NE,44,4.0,4.0,100,0.00,,,0.00,Wunderground v.1.13,2013-06-24 18:07:00,
2013-06-24 14:12:00,91.2,91.2,29.83,SE,131,3.0,3.0,100,0.00,,,0.00,Wunderground v.1.13,2013-06-24 18:12:00,
2013-06-24 14:22:00,91.2,91.2,29.82,East,80,4.0,4.0,100,0.00,,,0.00,Wunderground v.1.13,2013-06-24 18:22:00,
2013-06-24 14:27:00,91.0,91.0,29.82,East,100,5.0,5.0,100,0.00,,,0.00,Wunderground v.1.13,2013-06-24 18:27:00,
2013-06-24 14:32:00,91.0,91.0,29.82,South,179,5.0,7.0,100,0.00,,,0.00,Wunderground v.1.13,2013-06-24 18:32:00,
2013-06-24 14:37:00,91.0,91.0,29.82,SE,136,4.0,4.0,100,0.00,,,0.00,Wunderground v.1.13,2013-06-24 18:37:00,
2013-06-24 14:47:00,90.7,90.7,29.82,ESE,112,5.0,5.0,100,0.00,,,0.00,Wunderground v.1.13,2013-06-24 18:47:00,
2013-06-24 14:57:00,90.7,90.7,29.81,ESE,121,3.0,6.0,100,0.00,,,0.00,Wunderground v.1.13,2013-06-24 18:57:00,
2013-06-24 15:02:00,90.7,90.7,29.81,SE,127,3.0,3.0,100,0.00,,,0.00,Wunderground v.1.13,2013-06-24 19:02:00,
2013-06-24 15:12:00,91.0,91.0,29.81,SE,133,1.0,3.0,100,0.00,,,0.00,Wunderground v.1.13,2013-06-24 19:12:00,
2013-06-24 15:22:00,90.1,90.1,29.81,East,79,2.0,6.0,100,0.00,,,0.00,Wunderground v.1.13,2013-06-24 19:22:00,
2013-06-24 15:27:00,89.3,89.3,29.81,ESE,106,2.0,2.0,100,0.00,,,0.00,Wunderground v.1.13,2013-06-24 19:27:00,
2013-06-24 15:32:00,88.8,-99.9,29.81,East,96,3.0,3.0,0,0.00,,,0.00,Wunderground v.1.13,2013-06-24 19:32:00,
2013-06-24 15:42:00,90.1,90.1,29.80,East,96,4.0,4.0,100,0.00,,,0.00,Wunderground v.1.13,2013-06-24 19:42:00,
2013-06-24 15:57:00,90.1,90.1,29.80,East,82,3.0,3.0,100,0.00,,,0.00,Wunderground v.1.13,2013-06-24 19:57:00,
2013-06-24 16:02:00,89.9,89.9,29.80,East,96,3.0,3.0,100,0.00,,,0.00,Wunderground v.1.13,2013-06-24 20:02:00,
2013-06-24 16:17:00,89.9,89.9,29.78,ESE,120,4.0,4.0,100,0.00,,,0.00,Wunderground v.1.13,2013-06-24 20:17:00,
2013-06-24 16:22:00,90.1,90.1,29.79,East,93,4.0,7.0,100,0.00,,,0.00,Wunderground v.1.13,2013-06-24 20:22:00,
2013-06-24 16:27:00,90.3,90.3,29.79,NE,55,4.0,4.0,100,0.00,,,0.00,Wunderground v.1.13,2013-06-24 20:27:00,
2013-06-24 16:32:00,90.1,90.1,29.79,ESE,102,5.0,6.0,100,0.00,,,0.00,Wunderground v.1.13,2013-06-24 20:32:00,
2013-06-24 16:37:00,89.9,89.9,29.78,ESE,114,5.0,5.0,100,0.00,,,0.00,Wunderground v.1.13,2013-06-24 20:37:00,
2013-06-24 16:42:00,89.9,89.9,29.78,ESE,116,4.0,5.0,100,0.00,,,0.00,Wunderground v.1.13,2013-06-24 20:42:00,
2013-06-24 16:52:00,89.5,89.5,29.78,SE,128,5.0,5.0,100,0.00,,,0.00,Wunderground v.1.13,2013-06-24 20:52:00,
2013-06-24 16:57:00,88.4,88.4,29.78,East,82,5.0,6.0,100,0.00,,,0.00,Wunderground v.1.13,2013-06-24 20:57:00,
2013-06-24 17:02:00,87.6,87.6,29.78,SE,127,6.0,6.0,100,0.00,,,0.00,Wunderground v.1.13,2013-06-24 21:02:00,
2013-06-24 17:07:00,86.7,-99.9,29.80,East,83,5.0,5.0,0,0.00,,,0.00,Wunderground v.1.13,2013-06-24 21:07:00,
2013-06-24 17:12:00,86.3,-99.9,29.80,ESE,119,4.0,6.0,0,0.00,,,0.00,Wunderground v.1.13,2013-06-24 21:12:00,
2013-06-24 17:17:00,85.7,-99.9,29.80,ESE,104,4.0,6.0,0,0.00,,,0.00,Wunderground v.1.13,2013-06-24 21:17:00,
2013-06-24 17:22:00,85.5,-99.9,29.81,East,83,4.0,4.0,0,0.00,,,0.00,Wunderground v.1.13,2013-06-24 21:22:00,
2013-06-24 17:27:00,84.9,-99.9,29.81,East,82,2.0,3.0,0,0.00,,,0.00,Wunderground v.1.13,2013-06-24 21:27:00,
2013-06-24 17:32:00,84.5,-99.9,29.81,ESE,121,2.0,2.0,0,0.00,,,0.00,Wunderground v.1.13,2013-06-24 21:32:00,
2013-06-24 17:37:00,84.3,-99.9,29.81,East,97,2.0,5.0,0,0.00,,,0.00,Wunderground v.1.13,2013-06-24 21:37:00,
2013-06-24 17:42:00,84.0,-99.9,29.81,East,90,3.0,3.0,0,0.00,,,0.00,Wunderground v.1.13,2013-06-24 21:42:00,
2013-06-24 17:47:00,83.8,-99.9,29.81,East,100,4.0,4.0,0,0.00,,,0.00,Wunderground v.1.13,2013-06-24 21:47:00,
2013-06-24 17:57:00,83.4,-99.9,29.81,ESE,114,4.0,4.0,0,0.00,,,0.00,Wunderground v.1.13,2013-06-24 21:57:00,
2013-06-24 18:02:00,83.4,-99.9,29.81,ESE,119,3.0,3.0,255,0.00,,,0.00,Wunderground v.1.13,2013-06-24 22:02:00,
2013-06-24 18:07:00,83.2,-99.9,29.82,ESE,120,2.0,2.0,0,0.00,,,0.00,Wunderground v.1.13,2013-06-24 22:07:00,
2013-06-24 18:12:00,82.4,-99.9,29.82,SE,143,3.0,3.0,255,0.00,,,0.00,Wunderground v.1.13,2013-06-24 22:12:00,
2013-06-24 18:22:00,80.7,34.6,29.82,SE,133,0.0,0.0,19,0.00,,,0.01,Wunderground v.1.13,2013-06-24 22:22:00,
2013-06-24 18:27:00,79.6,48.0,29.82,SE,133,0.0,0.0,33,0.00,,,0.01,Wunderground v.1.13,2013-06-24 22:27:00,
2013-06-24 18:37:00,77.7,54.7,29.82,SE,133,0.0,0.0,45,0.00,,,0.01,Wunderground v.1.13,2013-06-24 22:37:00,
2013-06-24 18:42:00,77.0,59.1,29.82,SE,133,0.0,0.0,54,0.00,,,0.01,Wunderground v.1.13,2013-06-24 22:42:00,
2013-06-24 18:47:00,76.5,63.9,29.82,SE,133,0.0,0.0,65,0.00,,,0.01,Wunderground v.1.13,2013-06-24 22:47:00,
2013-06-24 18:52:00,76.0,65.5,29.82,SE,133,0.0,0.0,70,0.00,,,0.01,Wunderground v.1.13,2013-06-24 22:52:00,
2013-06-24 18:57:00,75.3,66.0,29.82,SE,133,0.0,0.0,73,0.00,,,0.01,Wunderground v.1.13,2013-06-24 22:57:00,
2013-06-24 19:02:00,74.6,66.1,29.82,SE,133,0.0,0.0,75,0.00,,,0.01,Wunderground v.1.13,2013-06-24 23:02:00,
2013-06-24 19:07:00,74.2,66.1,29.82,SE,133,0.0,0.0,76,0.00,,,0.01,Wunderground v.1.13,2013-06-24 23:07:00,
2013-06-24 19:12:00,73.9,66.6,29.82,SE,133,0.0,0.0,78,0.00,,,0.01,Wunderground v.1.13,2013-06-24 23:12:00,
2013-06-24 19:17:00,73.9,67.3,29.82,SE,133,0.0,0.0,80,0.00,,,0.01,Wunderground v.1.13,2013-06-24 23:17:00,
2013-06-24 19:22:00,73.9,67.7,29.82,SE,133,0.0,0.0,81,0.00,,,0.01,Wunderground v.1.13,2013-06-24 23:22:00,
2013-06-24 19:27:00,74.0,68.2,29.82,SE,133,0.0,0.0,82,0.00,,,0.01,Wunderground v.1.13,2013-06-24 23:27:00,
2013-06-24 19:32:00,74.0,68.2,29.82,SE,133,0.0,0.0,82,0.00,,,0.01,Wunderground v.1.13,2013-06-24 23:32:00,
2013-06-24 19:42:00,73.7,68.9,29.83,SE,133,1.0,1.0,85,0.00,,,0.01,Wunderground v.1.13,2013-06-24 23:42:00,
2013-06-24 19:47:00,73.9,68.1,29.83,East,82,2.0,2.0,82,0.00,,,0.01,Wunderground v.1.13,2013-06-24 23:47:00,
2013-06-24 19:57:00,74.4,64.4,29.82,East,82,1.0,1.0,71,0.00,,,0.01,Wunderground v.1.13,2013-06-24 23:57:00,
2013-06-24 20:02:00,74.4,62.7,29.82,ENE,68,1.0,5.0,67,0.00,,,0.01,Wunderground v.1.13,2013-06-25 00:02:00,
2013-06-24 20:07:00,74.6,56.9,29.82,East,79,2.0,3.0,54,0.00,,,0.01,Wunderground v.1.13,2013-06-25 00:07:00,
2013-06-24 20:17:00,74.9,50.9,29.82,ESE,102,3.0,3.0,43,0.00,,,0.01,Wunderground v.1.13,2013-06-25 00:17:00,
2013-06-24 20:22:00,75.1,51.1,29.83,East,100,4.0,4.0,43,0.00,,,0.01,Wunderground v.1.13,2013-06-25 00:22:00,
2013-06-24 20:32:00,74.9,39.6,29.83,ESE,114,5.0,6.0,28,0.00,,,0.01,Wunderground v.1.13,2013-06-25 00:32:00,
2013-06-24 20:37:00,74.7,39.4,29.84,NE,54,5.0,6.0,28,0.00,,,0.01,Wunderground v.1.13,2013-06-25 00:37:00,
2013-06-24 20:42:00,74.6,36.4,29.84,SE,136,6.0,6.0,25,0.00,,,0.01,Wunderground v.1.13,2013-06-25 00:42:00,
2013-06-24 20:47:00,74.6,30.9,29.84,NE,52,5.0,5.0,20,0.00,,,0.01,Wunderground v.1.13,2013-06-25 00:47:00,
2013-06-24 20:57:00,74.6,28.3,29.85,NE,44,4.0,5.0,18,0.00,,,0.01,Wunderground v.1.13,2013-06-25 00:57:00,
2013-06-24 21:02:00,74.4,29.4,29.85,East,79,3.0,6.0,19,0.00,,,0.01,Wunderground v.1.13,2013-06-25 01:02:00,
2013-06-24 21:27:00,74.2,18.3,29.85,NE,49,5.0,5.0,12,0.00,,,0.01,Wunderground v.1.13,2013-06-25 01:27:00,
2013-06-24 21:32:00,74.2,18.3,29.85,ESE,107,4.0,4.0,12,0.00,,,0.01,Wunderground v.1.13,2013-06-25 01:32:00,
2013-06-24 21:37:00,74.2,20.1,29.85,ESE,104,2.0,2.0,13,0.00,,,0.01,Wunderground v.1.13,2013-06-25 01:37:00,
2013-06-24 21:42:00,74.2,21.9,29.85,ESE,104,1.0,1.0,14,0.00,,,0.01,Wunderground v.1.13,2013-06-25 01:42:00,
2013-06-24 21:52:00,74.0,27.8,29.85,ESE,104,0.0,0.0,18,0.00,,,0.01,Wunderground v.1.13,2013-06-25 01:52:00,
2013-06-24 21:57:00,73.9,30.3,29.85,ESE,104,0.0,0.0,20,0.00,,,0.01,Wunderground v.1.13,2013-06-25 01:57:00,
2013-06-24 22:07:00,73.3,34.3,29.84,East,82,1.0,1.0,24,0.00,,,0.01,Wunderground v.1.13,2013-06-25 02:07:00,
2013-06-24 22:12:00,73.3,31.0,29.84,East,83,2.0,2.0,21,0.00,,,0.01,Wunderground v.1.13,2013-06-25 02:12:00,
2013-06-24 22:17:00,73.5,26.0,29.84,East,100,3.0,3.0,17,0.00,,,0.01,Wunderground v.1.13,2013-06-25 02:17:00,
2013-06-24 22:32:00,73.7,34.6,29.84,SE,143,1.0,1.0,24,0.00,,,0.01,Wunderground v.1.13,2013-06-25 02:32:00,
2013-06-24 22:37:00,73.2,37.2,29.84,ESE,121,1.0,3.0,27,0.00,,,0.01,Wunderground v.1.13,2013-06-25 02:37:00,
2013-06-24 22:42:00,72.8,38.7,29.84,ESE,120,3.0,4.0,29,0.00,,,0.01,Wunderground v.1.13,2013-06-25 02:42:00,
2013-06-24 22:47:00,72.5,41.0,29.84,East,97,4.0,4.0,32,0.00,,,0.01,Wunderground v.1.13,2013-06-25 02:47:00,
2013-06-24 22:52:00,72.3,43.1,29.84,ESE,113,4.0,4.0,35,0.00,,,0.01,Wunderground v.1.13,2013-06-25 02:52:00,
2013-06-24 22:57:00,72.0,45.0,29.84,ESE,103,4.0,4.0,38,0.00,,,0.01,Wunderground v.1.13,2013-06-25 02:57:00,
2013-06-24 23:02:00,72.0,45.7,29.84,NE,55,3.0,3.0,39,0.00,,,0.01,Wunderground v.1.13,2013-06-25 03:02:00,
2013-06-24 23:07:00,71.8,46.2,29.84,SE,140,3.0,3.0,40,0.00,,,0.01,Wunderground v.1.13,2013-06-25 03:07:00,
2013-06-24 23:32:00,72.5,37.5,29.83,ESE,110,3.0,3.0,28,0.00,,,0.01,Wunderground v.1.13,2013-06-25 03:32:00,
2013-06-24 23:37:00,72.7,37.7,29.84,ESE,103,3.0,3.0,28,0.00,,,0.01,Wunderground v.1.13,2013-06-25 03:37:00,
2013-06-24 23:42:00,72.7,37.7,29.84,North,352,2.0,2.0,28,0.00,,,0.01,Wunderground v.1.13,2013-06-25 03:42:00,
2013-06-24 23:47:00,72.7,39.5,29.84,North,352,0.0,0.0,30,0.00,,,0.01,Wunderground v.1.13,2013-06-25 03:47:00,
2013-06-24 23:52:00,72.5,44.0,29.85,East,85,1.0,2.0,36,0.00,,,0.01,Wunderground v.1.13,2013-06-25 03:52:00,